Weather History for Moab, UT

Change the Weather History Date:

Thursday, February 21, 2013

  Actual Average Record
Temperature  
Mean Temperature 36 °F 37 °F  
Max Temperature 46 °F 49 °F 68 °F (1972)
Min Temperature 26 °F 26 °F 9 °F (1939)
Degree Days  
Heating Degree Days 29 28  
Month to date heating degree days 684 651  
Since 1 July heating degree days 4690 4226  
Cooling Degree Days 0 0  
Month to date cooling degree days 0 0  
Year to date cooling degree days 0 0  
Moisture  
Dew Point 20 °F    
Average Humidity 53    
Maximum Humidity 75    
Minimum Humidity 31    
Precipitation  
Precipitation 0.00 in 0.02 in 0.20 in (1979)
Month to date precipitation 0.15 0.41  
Year to date precipitation 0.59 1.05  
Sea Level Pressure  
Sea Level Pressure 29.77 in    
Wind  
Wind Speed 4 mph (WNW)    
Max Wind Speed 14 mph    
Max Gust Speed 16 mph    
Visibility 10 miles    
Events      
T = Trace of Precipitation, MM = Missing Value Source: NWS Daily Summary

Daily Weather History Graph

Daily Weather History Graph

Search for Another Location

Airport:

Trip Planner

Search our weather history database for the weather conditions in past years. The results will help you decide how hot, cold, wet, or windy it might be!

Date:

Astronomy

Feb. 21, 2013 Rise Set
Actual Time 7:02 AM MST 6:03 PM MST
Civil Twilight 6:35 AM MST 6:30 PM MST
Nautical Twilight 6:04 AM MST 7:01 PM MST
Astronomical Twilight 5:33 AM MST 7:32 PM MST
Moon 2:23 PM MST (2/21) 4:07 AM MST (2/21)
Length of Visible Light 11h 55m
Length of Day
11h 01m
Waxing Gibbous, 84% of the Moon is Illuminated
Feb 21
Waxing Gibbous
Feb 25
Full
Mar 4
Last Quarter
Mar 11
New
Mar 19
First Quarter

Hourly Weather History & Observations

Time (MST) Temp. Windchill Dew Point Humidity Pressure Visibility Wind Dir Wind Speed Gust Speed Precip Events Conditions
12:53 AM 33.1 °F 28.7 °F 21.9 °F 64% 29.62 in 10.0 mi SW 4.6 mph - N/A   Overcast
1:53 AM 28.9 °F - 21.0 °F 72% 29.64 in 10.0 mi Calm Calm - N/A   Mostly Cloudy
2:53 AM 28.9 °F - 21.0 °F 72% 29.64 in 10.0 mi Calm Calm - N/A   Clear
3:53 AM 30.0 °F - 21.9 °F 72% 29.65 in 10.0 mi Calm Calm - N/A   Overcast
4:53 AM 30.0 °F 26.5 °F 21.9 °F 72% 29.68 in 10.0 mi West 3.5 mph - N/A   Mostly Cloudy
5:53 AM 30.0 °F - 21.0 °F 69% 29.70 in 10.0 mi Calm Calm - N/A   Scattered Clouds
6:53 AM 28.9 °F - 21.0 °F 72% 29.74 in 10.0 mi Calm Calm - N/A   Mostly Cloudy
7:53 AM 30.9 °F - 23.0 °F 72% 29.77 in 10.0 mi Calm Calm - N/A   Overcast
8:53 AM 35.1 °F - 23.0 °F 61% 29.78 in 10.0 mi Calm Calm - N/A   Overcast
9:53 AM 37.9 °F 32.7 °F 21.0 °F 51% 29.80 in 10.0 mi WNW 6.9 mph - N/A   Overcast
10:53 AM 39.0 °F 34.8 °F 19.9 °F 46% 29.81 in 10.0 mi NNW 5.8 mph - N/A   Overcast
11:53 AM 39.9 °F - 19.9 °F 45% 29.81 in 10.0 mi Calm Calm - N/A   Overcast
12:53 PM 42.1 °F 40.2 °F 19.9 °F 41% 29.79 in 10.0 mi Variable 3.5 mph - N/A   Overcast
1:53 PM 43.0 °F 39.5 °F 18.0 °F 37% 29.78 in 10.0 mi NW 5.8 mph - N/A   Mostly Cloudy
2:53 PM 45.0 °F 40.6 °F 16.0 °F 31% 29.77 in 10.0 mi NW 8.1 mph - N/A   Clear
3:53 PM 45.0 °F 42.6 °F 16.0 °F 31% 29.76 in 10.0 mi NW 4.6 mph - N/A   Clear
4:53 PM 44.1 °F - 15.1 °F 31% 29.77 in 10.0 mi Calm Calm - N/A   Clear
5:53 PM 39.9 °F 36.7 °F 21.9 °F 49% 29.79 in 10.0 mi NNW 4.6 mph - N/A   Scattered Clouds
6:53 PM 37.9 °F 32.1 °F 23.0 °F 55% 29.83 in 10.0 mi NNE 8.1 mph - N/A   Scattered Clouds
7:53 PM 35.1 °F 29.3 °F 25.0 °F 67% 29.86 in 10.0 mi West 6.9 mph - N/A   Mostly Cloudy
8:53 PM 35.1 °F 28.6 °F 19.0 °F 52% 29.87 in 10.0 mi West 8.1 mph - N/A   Clear
9:53 PM 34.0 °F 24.6 °F 15.1 °F 46% 29.88 in 10.0 mi West 13.8 mph - N/A   Overcast
10:53 PM 34.0 °F 25.0 °F 17.1 °F 50% 29.89 in 10.0 mi WNW 12.7 mph - N/A   Overcast
11:53 PM 33.1 °F 26.1 °F 18.0 °F 54% 29.90 in 10.0 mi WNW 8.1 mph - N/A   Overcast